Date String (YYYY-MM-DD hh:mm:ss) UTC,Instrument flags,absolute air pressure of the measurement (hPa),sample flow rate (lpm),inlet stack bypass flow (lpm),air temperature of the measurement (°C),ambient temperature measured by the external sensor (°C),aerosol sample conditioner tube jacket temperature (°C),OPC LED temperature (°C),internal box temperature (°C),relative humidity of the measurement (%),span deviation,mass concentration of particles derived from Lorenz-Mie calculation of OPC scattering (μg/m³),mass concentration of particles derived from Lorenz-Mie calculation of OPC scattering (μg/m³),mass concentration of particles derived from Lorenz-Mie calculation of OPC scattering (μg/m³)
DateTimeUTC,F1_M11,P_M11,Q1_M11,Q2_M11,T1_M11,T2_M11,T3_M11,T4_M11,T5_M11,U1_M11,ZSPAN_M11,X0_M11,X2_M11,X1_M11
2023-12-26 17:00:00,SystemResetWarning,0824.2,5.00,000.00,018.7,017.6,000.0,027.2,020.0,11.7,0000.0,0003.38,0001.37,0000.78
2023-12-26 17:01:00,SystemResetWarning,0824.1,5.01,000.00,018.7,017.6,000.0,027.2,020.0,11.6,0000.0,0003.44,0001.41,0000.80
2023-12-26 17:02:00,SystemResetWarning,0824.2,5.01,000.00,018.7,017.6,000.0,027.2,020.0,11.7,0000.0,0003.79,0001.43,0000.81
2023-12-26 17:03:00,SystemResetWarning,0824.2,4.99,000.00,018.7,017.6,000.0,027.2,020.0,11.7,0000.0,0003.94,0001.48,0000.83
2023-12-26 17:04:00,SystemResetWarning,0824.2,4.99,000.00,018.7,017.6,000.0,027.2,020.0,11.7,0000.0,0004.20,0001.54,0000.83
2023-12-26 17:05:00,SystemResetWarning,0824.2,4.99,000.00,018.7,017.6,000.0,027.2,020.0,11.5,0000.0,0004.32,0001.57,0000.84
2023-12-26 17:06:00,SystemResetWarning,0824.1,5.00,000.00,018.7,017.6,000.0,027.2,020.0,11.8,0000.0,0004.40,0001.62,0000.87
2023-12-26 17:07:00,SystemResetWarning,0824.2,5.00,000.00,018.7,017.6,000.0,027.2,020.0,11.8,0000.0,0004.47,0001.66,0000.88
2023-12-26 17:08:00,SystemResetWarning,0824.2,5.00,000.00,018.7,017.6,000.0,027.2,020.0,11.5,0000.0,0004.42,0001.67,0000.88
2023-12-26 17:09:00,SystemResetWarning,0824.1,5.01,000.00,018.7,017.7,000.0,027.2,020.0,11.6,0000.0,0004.41,0001.67,0000.87
2023-12-26 17:10:00,SystemResetWarning,0824.1,5.01,000.00,018.7,017.6,000.0,027.2,020.0,11.5,0000.0,0003.96,0001.66,0000.87
2023-12-26 17:11:00,SystemResetWarning,0824.1,5.00,000.00,018.7,017.6,000.0,027.2,020.0,11.7,0000.0,0003.72,0001.58,0000.84
2023-12-26 17:12:00,SystemResetWarning,0824.1,5.00,000.00,018.7,017.6,000.0,027.2,020.0,11.9,0000.0,0003.53,0001.51,0000.81
2023-12-26 17:13:00,SystemResetWarning,0824.1,4.99,000.00,018.7,017.6,000.0,027.2,020.0,12.1,0000.0,0003.07,0001.45,0000.77
2023-12-26 17:14:00,SystemResetWarning,0824.1,4.99,000.00,018.7,017.6,000.0,027.2,020.0,12.1,0000.0,0003.01,0001.39,0000.75
2023-12-26 17:15:00,SystemResetWarning,0824.1,5.01,000.00,018.7,017.6,000.0,027.2,020.0,12.0,0000.0,0002.79,0001.35,0000.75
2023-12-26 17:16:00,SystemResetWarning,0824.2,5.01,000.00,018.7,017.6,000.0,027.2,020.0,11.7,0000.0,0002.75,0001.33,0000.72
2023-12-26 17:17:00,SystemResetWarning,0824.2,5.00,000.00,018.7,017.6,000.0,027.2,020.0,11.9,0000.0,0002.74,0001.31,0000.68
2023-12-26 17:18:00,SystemResetWarning,0824.1,5.00,000.00,018.7,017.6,000.0,027.2,020.0,12.4,0000.0,0002.71,0001.27,0000.66
2023-12-26 17:19:00,SystemResetWarning,0824.1,4.99,000.00,018.7,017.6,000.0,027.2,020.0,12.4,0000.0,0002.73,0001.26,0000.64
2023-12-26 17:20:00,SystemResetWarning,0824.1,5.00,000.00,018.7,017.6,000.0,027.2,020.0,12.4,0000.0,0002.78,0001.26,0000.64
2023-12-26 17:21:00,SystemResetWarning,0824.0,5.00,000.00,018.7,017.6,000.0,027.2,020.0,12.7,0000.0,0002.90,0001.27,0000.65
2023-12-26 17:22:00,SystemResetWarning,0824.0,5.00,000.00,018.6,017.6,000.0,027.1,020.0,12.6,0000.0,0003.12,0001.34,0000.66
2023-12-26 17:23:00,SystemResetWarning,0824.0,5.00,000.00,018.7,017.7,000.0,027.1,020.0,12.5,0000.0,0003.18,0001.32,0000.66
2023-12-26 17:24:00,SystemResetWarning,0824.0,4.99,000.00,018.6,017.7,000.0,027.1,020.0,13.0,0000.0,0003.66,0001.32,0000.65
2023-12-26 17:25:00,SystemResetWarning,0824.0,4.99,000.00,018.6,017.7,000.0,027.1,020.0,12.8,0000.0,0003.65,0001.34,0000.66
2023-12-26 17:26:00,SystemResetWarning,0823.9,5.00,000.00,018.6,017.7,000.0,027.1,020.0,12.9,0000.0,0003.50,0001.31,0000.66
2023-12-26 17:27:00,SystemResetWarning,0824.0,5.00,000.00,018.6,017.7,000.0,027.1,020.0,12.9,0000.0,0003.58,0001.33,0000.67
2023-12-26 17:28:00,SystemResetWarning,0824.0,5.00,000.00,018.6,017.7,000.0,027.1,020.0,12.9,0000.0,0003.63,0001.34,0000.69
2023-12-26 17:29:00,SystemResetWarning,0824.0,5.01,000.00,018.6,017.7,000.0,027.1,020.0,12.8,0000.0,0003.83,0001.39,0000.71
2023-12-26 17:30:00,SystemResetWarning,0824.0,5.00,000.00,018.6,017.7,000.0,027.1,020.0,12.8,0000.0,0003.99,0001.43,0000.73
2023-12-26 17:31:00,SystemResetWarning,0824.0,4.99,000.00,018.7,017.7,000.0,027.1,020.0,12.7,0000.0,0003.99,0001.45,0000.74
2023-12-26 17:32:00,SystemResetWarning,0824.0,5.00,000.00,018.7,017.7,000.0,027.1,020.0,12.7,0000.0,0003.90,0001.44,0000.75
2023-12-26 17:33:00,SystemResetWarning,0824.0,5.00,000.00,018.7,017.7,000.0,027.1,020.0,13.2,0000.0,0003.73,0001.42,0000.75
2023-12-26 17:34:00,SystemResetWarning,0824.0,5.00,000.00,018.7,017.6,000.0,027.1,020.0,13.4,0000.0,0004.14,0001.45,0000.76
2023-12-26 17:35:00,SystemResetWarning,0824.0,5.00,000.00,018.7,017.7,000.0,027.1,020.0,13.5,0000.0,0004.34,0001.47,0000.80
2023-12-26 17:36:00,SystemResetWarning,0824.0,5.00,000.00,018.7,017.7,000.0,027.1,020.0,13.1,0000.0,0004.32,0001.53,0000.82
2023-12-26 17:37:00,SystemResetWarning,0824.0,5.00,000.00,018.7,017.7,000.0,027.1,020.0,13.4,0000.0,0004.54,0001.56,0000.83
2023-12-26 17:38:00,SystemResetWarning,0823.9,5.00,000.00,018.6,017.7,000.0,027.1,020.0,13.2,0000.0,0004.50,0001.56,0000.82
2023-12-26 17:39:00,SystemResetWarning,0823.8,5.00,000.00,018.6,017.7,000.0,027.1,020.0,13.0,0000.0,0004.76,0001.60,0000.81
2023-12-26 17:40:00,SystemResetWarning,0823.8,5.00,000.00,018.6,017.7,000.0,027.1,020.0,12.7,0000.0,0004.72,0001.58,0000.80
2023-12-26 17:41:00,SystemResetWarning,0823.9,5.00,000.00,018.6,017.7,000.0,027.1,020.0,12.8,0000.0,0005.59,0001.63,0000.81
2023-12-26 17:42:00,SystemResetWarning,0823.8,5.00,000.00,018.7,017.7,000.0,027.1,020.0,12.8,0000.0,0006.40,0001.65,0000.81
2023-12-26 17:43:00,SystemResetWarning,0823.8,5.00,000.00,018.6,017.7,000.0,027.1,020.0,12.9,0000.0,0006.73,0001.63,0000.82
2023-12-26 17:44:00,SystemResetWarning,0823.9,5.00,000.00,018.6,017.7,000.0,027.1,020.0,13.1,0000.0,0006.97,0001.65,0000.82
2023-12-26 17:45:00,SystemResetWarning,0823.9,5.00,000.00,018.7,017.6,000.0,027.1,020.1,13.2,0000.0,0006.92,0001.65,0000.81
2023-12-26 17:46:00,SystemResetWarning,0823.9,5.01,000.00,018.7,018.2,000.0,027.1,020.4,13.4,0000.0,0006.32,0001.66,0000.79
2023-12-26 17:47:00,SystemResetWarning,0823.9,5.00,000.00,018.9,018.9,000.0,027.1,020.7,13.6,0000.0,0006.10,0001.60,0000.79
2023-12-26 17:48:00,SystemResetWarning,0823.9,4.98,000.00,018.9,018.9,000.0,027.1,020.4,13.5,0000.0,0005.93,0001.60,0000.78
2023-12-26 17:49:00,SystemResetWarning,0823.9,5.01,000.00,018.9,018.8,000.0,027.1,020.2,13.4,0000.0,0006.49,0001.60,0000.77
2023-12-26 17:50:00,SystemResetWarning,0823.8,5.01,000.00,018.9,018.6,000.0,027.1,020.0,13.5,0000.0,0007.02,0001.60,0000.78
2023-12-26 17:51:00,SystemResetWarning,0823.8,5.00,000.00,018.9,018.5,000.0,027.1,020.0,13.6,0000.0,0007.19,0001.63,0000.79
2023-12-26 17:52:00,SystemResetWarning,0823.8,4.99,000.00,018.8,018.4,000.0,027.1,020.0,13.6,0000.0,0007.04,0001.62,0000.79
2023-12-26 17:53:00,SystemResetWarning,0823.8,4.99,000.00,018.8,018.3,000.0,027.1,020.0,13.7,0000.0,0006.66,0001.59,0000.78
2023-12-26 17:54:00,SystemResetWarning,0823.8,5.00,000.00,018.8,018.2,000.0,027.2,020.0,13.5,0000.0,0007.07,0001.66,0000.78
2023-12-26 17:55:00,SystemResetWarning,0823.8,5.01,000.00,018.8,018.1,000.0,027.2,020.0,13.2,0000.0,0006.90,0001.65,0000.77
2023-12-26 17:56:00,SystemResetWarning,0823.7,5.01,000.00,018.8,018.1,000.0,027.2,020.0,13.4,0000.0,0007.05,0001.73,0000.78
2023-12-26 17:57:00,SystemResetWarning,0823.8,5.00,000.00,018.8,018.1,000.0,027.2,020.0,13.4,0000.0,0007.20,0001.76,0000.80
2023-12-26 17:58:00,SystemResetWarning,0823.8,4.99,000.00,018.8,018.0,000.0,027.2,020.0,13.4,0000.0,0007.26,0001.75,0000.81
2023-12-26 17:59:00,SystemResetWarning,0823.7,5.00,000.00,018.8,018.0,000.0,027.2,020.0,13.4,0000.0,0007.34,0001.80,0000.82
